User: anonymous   Login
Location: Columbia
(38.9520°N, 92.3340°W)
Time: 16:24:03
(UTC-06:00)
Language:

Cosmos 1633 - Orbit

View from above orbital plane
View from above orbital plane
View from above satellite
View from above satellite

Ground track
Ground track

The orbit data is extracted from the following two-line orbital elements,

1 15592U 85020A   17347.46650521  .00001534  00000-0  52935-4 0  9999
2 15592  82.5371 139.6188 0011957 262.1922  97.7960 15.29117290791689
Epoch (UTC): 13 December 2017 11:11:46
Eccentricity: 0.0011957
inclination: 82.5371°
perigee height: 470 km
apogee height: 486 km
right ascension of ascending node: 139.6188°
argument of perigee: 262.1922°
revolutions per day: 15.29117290
mean anomaly at epoch: 97.7960°
orbit number at epoch: 79168

The dashed part of the orbit path shows where the satellite is in the earth's shadow,  

DLR